Location: STAR School
(35.3054°N, 111.2976°W)
Time: 04:06:43
(UTC-07:00)

UKube-1 - Visible Passes

Search period start: 17 October 2019 00:00
Search period end: 27 October 2019 00:00
Orbit: 613 x 619 km, 98.4° (Epoch: 17 October)

Date Brightness Start Highest point End Pass type
(mag) Time Alt. Az. Time Alt. Az. Time Alt. Az.
17 Oct ? 03:56:55 10° ESE 04:00:04 20° ENE 04:03:13 10° NNE visible
17 Oct ? 05:32:03 10° SSW 05:35:49 29° W 05:39:36 10° NW visible
17 Oct ? 18:59:15 10° NW 19:00:48 12° WNW 19:02:22 10° W visible
18 Oct ? 04:12:19 10° SE 04:16:03 30° ENE 04:19:48 10° N visible
18 Oct ? 05:48:53 10° SW 05:52:00 19° W 05:55:08 10° NW visible
19 Oct ? 04:27:59 10° SE 04:32:04 45° ENE 04:36:11 10° N visible
19 Oct ? 06:06:19 10° WSW 06:08:14 13° W 06:10:08 10° WNW visible
20 Oct ? 04:43:51 10° SSE 04:48:08 71° ENE 04:52:25 10° N visible
20 Oct ? 18:09:33 10° N 18:13:34 40° WNW 18:17:33 10° SW visible
21 Oct ? 04:59:55 10° S 05:04:13 74° WSW 05:08:31 10° NNW visible
21 Oct ? 18:25:59 10° NNW 18:29:34 27° WNW 18:33:09 10° SW visible
22 Oct ? 03:42:46 10° E 03:44:49 13° ENE 03:46:50 10° NE visible
22 Oct ? 05:16:12 10° S 05:20:20 47° W 05:24:30 10° NNW visible
22 Oct ? 18:42:38 10° NNW 18:45:33 18° WNW 18:48:27 10° WSW visible
23 Oct ? 03:57:39 10° ESE 04:00:45 20° ENE 04:03:50 10° NNE visible
23 Oct ? 05:32:42 10° SSW 05:36:29 30° W 05:40:17 10° NW visible
23 Oct ? 18:59:47 10° NW 19:01:29 12° WNW 19:03:09 10° W visible
24 Oct ? 04:13:01 10° SE 04:16:44 29° ENE 04:20:26 10° N visible
24 Oct ? 05:49:30 10° SW 05:52:40 20° W 05:55:51 10° NW visible
25 Oct ? 04:28:40 10° SE 04:32:44 44° ENE 04:36:50 10° N visible
25 Oct ? 06:06:52 10° WSW 06:08:53 13° W 06:10:54 10° WNW visible
26 Oct ? 04:44:31 10° SSE 04:48:48 69° ENE 04:53:04 10° N visible
26 Oct ? 18:10:11 10° N 18:14:13 41° WNW 18:18:14 10° SW visible
